| time (UTC) | temp F | wind direction | speed knots | gust knots | rain 1hr in | rain 24hr in | rain mn in | humidity % | barometer mb |
| 20260504195204 | 74 | 196 | 3.5 | 13.0 | 0.00 | 0.00 | 0.00 | 36 | 1009.8 |
| 20260504194704 | 74 | 206 | 5.2 | 11.3 | 0.00 | 0.00 | 0.00 | 35 | 1010.2 |
| 20260504193703 | 74 | 188 | 6.1 | 13.0 | 0.00 | 0.00 | 0.00 | 36 | 1010.2 |
| 20260504193204 | 74 | 202 | 2.6 | 8.7 | 0.00 | 0.00 | 0.00 | 35 | 1010.2 |
| 20260504192703 | 74 | 206 | 4.3 | 14.8 | 0.00 | 0.00 | 0.00 | 36 | 1010.2 |
| 20260504192204 | 74 | 217 | 4.3 | 13.0 | 0.00 | 0.00 | 0.00 | 37 | 1010.5 |
| 20260504191704 | 74 | 202 | 4.3 | 13.0 | 0.00 | 0.00 | 0.00 | 36 | 1010.3 |
| 20260504191203 | 74 | 223 | 1.7 | 8.7 | 0.00 | 0.00 | 0.00 | 35 | 1010.5 |
| 20260504190703 | 73 | 187 | 4.3 | 8.7 | 0.00 | 0.00 | 0.00 | 36 | 1010.5 |
| 20260504190203 | 73 | 77 | 1.7 | 13.0 | 0.00 | 0.00 | 0.00 | 38 | 1010.5 |
| 20260504185704 | 73 | 197 | 3.5 | 11.3 | 0.00 | 0.00 | 0.00 | 37 | 1010.5 |
| 20260504185203 | 73 | 208 | 5.2 | 11.3 | 0.00 | 0.00 | 0.00 | 36 | 1010.8 |
| 20260504184703 | 73 | 198 | 4.3 | 11.3 | 0.00 | 0.00 | 0.00 | 38 | 1010.7 |
| 20260504184204 | 73 | 232 | 2.6 | 14.8 | 0.00 | 0.00 | 0.00 | 36 | 1010.8 |
| 20260504183203 | 72 | 177 | 6.1 | 8.7 | 0.00 | 0.00 | 0.00 | 39 | 1010.8 |
| 20260504182703 | 72 | 177 | 5.2 | 8.7 | 0.00 | 0.00 | 0.00 | 39 | 1010.8 |
| 20260504182204 | 72 | 208 | 2.6 | 8.7 | 0.00 | 0.00 | 0.00 | 38 | 1011.2 |
| 20260504181703 | 72 | 212 | 2.6 | 8.7 | 0.00 | 0.00 | 0.00 | 38 | 1010.9 |
| 20260504181203 | 72 | 194 | 6.1 | 13.0 | 0.00 | 0.00 | 0.00 | 39 | 1011.2 |
| 20260504180703 | 71 | 210 | 6.1 | 14.8 | 0.00 | 0.00 | 0.00 | 39 | 1011.2 |
| 20260504180204 | 71 | 168 | 7.8 | 14.8 | 0.00 | 0.00 | 0.00 | 40 | 1011.2 |
| 20260504175203 | 71 | 217 | 4.3 | 8.7 | 0.00 | 0.00 | 0.00 | 40 | 1011.4 |
| 20260504174704 | 71 | 172 | 7.0 | 14.8 | 0.00 | 0.00 | 0.00 | 41 | 1011.8 |
| 20260504174203 | 71 | 183 | 6.1 | 13.0 | 0.00 | 0.00 | 0.00 | 41 | 1011.5 |
| 20260504173703 | 71 | 223 | 4.3 | 14.8 | 0.00 | 0.00 | 0.00 | 42 | 1011.6 |
| 20260504173203 | 71 | 218 | 6.1 | 14.8 | 0.00 | 0.00 | 0.00 | 41 | 1011.9 |
| 20260504172703 | 71 | 207 | 2.6 | 13.0 | 0.00 | 0.00 | 0.00 | 41 | 1011.8 |
| 20260504171703 | 71 | 224 | 2.6 | 8.7 | 0.00 | 0.00 | 0.00 | 39 | 1011.5 |
| 20260504171204 | 70 | 197 | 1.7 | 6.1 | 0.00 | 0.00 | 0.00 | 42 | 1011.9 |
| 20260504170704 | 70 | 197 | 4.3 | 11.3 | 0.00 | 0.00 | 0.00 | 41 | 1011.9 |
| 20260504170203 | 70 | 205 | 4.3 | 11.3 | 0.00 | 0.00 | 0.00 | 41 | 1011.9 |
| 20260504160203 | 69 | 226 | 3.5 | 13.0 | 0.00 | 0.00 | 0.00 | 40 | 1013.0 |
| 20260504150704 | 66 | 175 | 2.6 | 8.7 | 0.00 | 0.00 | 0.00 | 50 | 1013.2 |
| 20260504150203 | 66 | 216 | 2.6 | 6.1 | 0.00 | 0.00 | 0.00 | 51 | 1013.2 |
| 20260504141203 | 61 | 184 | 5.2 | 8.7 | 0.00 | 0.00 | 0.00 | 55 | 1013.2 |
| 20260504140203 | 61 | 188 | 6.1 | 8.7 | 0.00 | 0.00 | 0.00 | 55 | 1013.2 |
| 20260504130703 | 57 | 190 | 5.2 | 11.3 | 0.00 | 0.00 | 0.00 | 62 | 1013.9 |
| 20260504130204 | 57 | 184 | 6.1 | 11.3 | 0.00 | 0.00 | 0.00 | 63 | 1013.9 |
| 20260504120204 | 52 | 216 | 4.3 | 11.3 | 0.00 | 0.00 | 0.00 | 75 | 1014.1 |
| 20260504110703 | 48 | 204 | 3.5 | 8.7 | 0.00 | 0.00 | 0.00 | 81 | 1014.2 |
| 20260504100205 | 47 | 170 | 0.9 | 4.3 | 0.00 | 0.00 | 0.00 | 78 | 1014.2 |
| 20260504081704 | 41 | 157 | 0.0 | 0.0 | 0.00 | 0.00 | 0.00 | 91 | 1014.2 |
| 20260504081203 | 41 | 157 | 0.0 | 0.0 | 0.00 | 0.00 | 0.00 | 90 | 1013.9 |
| 20260504080704 | 41 | 158 | 0.0 | 0.0 | 0.00 | 0.00 | 0.00 | 90 | 1014.2 |
| 20260504080204 | 41 | 161 | 0.0 | 0.0 | 0.00 | 0.00 | 0.00 | 89 | 1014.2 |
| 20260504070204 | 42 | 154 | 0.0 | 0.0 | 0.00 | 0.00 | 0.00 | 89 | 1013.9 |
| 20260504060202 | 41 | 170 | 0.0 | 0.0 | 0.00 | 0.00 | 0.00 | 86 | 1013.9 |
| 20260504050702 | 43 | 165 | 0.0 | 0.0 | 0.00 | 0.00 | 0.00 | 83 | 1013.5 |
| 20260504045202 | 44 | 154 | 0.0 | 1.7 | 0.00 | 0.00 | 0.00 | 82 | 1013.5 |
| 20260504044702 | 44 | 169 | 0.0 | 4.3 | 0.00 | 0.00 | 0.00 | 84 | 1013.6 |
| 20260504044202 | 44 | 175 | 0.0 | 0.0 | 0.00 | 0.00 | 0.00 | 82 | 1013.5 |
| 20260504043702 | 45 | 175 | 0.0 | 0.0 | 0.00 | 0.00 | 0.00 | 82 | 1013.5 |
| 20260504043202 | 46 | 176 | 0.0 | 0.0 | 0.00 | 0.00 | 0.00 | 81 | 1013.5 |
| 20260504042702 | 46 | 176 | 0.0 | 0.0 | 0.00 | 0.00 | 0.00 | 78 | 1013.5 |
| 20260504041703 | 47 | 183 | 0.0 | 0.0 | 0.00 | 0.00 | 0.00 | 76 | 1013.5 |
| 20260504041203 | 47 | 186 | 0.0 | 0.0 | 0.00 | 0.00 | 0.00 | 76 | 1013.5 |
| 20260504040703 | 47 | 175 | 0.0 | 0.0 | 0.00 | 0.00 | 0.00 | 76 | 1013.5 |
| 20260504040202 | 47 | 175 | 0.0 | 0.0 | 0.00 | 0.00 | 0.00 | 76 | 1013.5 |
| 20260504035702 | 47 | 175 | 0.0 | 0.0 | 0.00 | 0.00 | 0.00 | 73 | 1013.5 |
| 20260504035202 | 46 | 180 | 0.0 | 0.0 | 0.00 | 0.00 | 0.00 | 65 | 1013.5 |
| 20260504034702 | 45 | 191 | 0.0 | 0.0 | 0.00 | 0.00 | 0.00 | 63 | 1013.3 |
| 20260504034202 | 45 | 197 | 0.0 | 0.0 | 0.00 | 0.00 | 0.00 | 63 | 1013.3 |
| 20260504033702 | 45 | 180 | 0.0 | 1.7 | 0.00 | 0.00 | 0.00 | 64 | 1013.5 |
| 20260504033202 | 44 | 191 | 0.0 | 0.0 | 0.00 | 0.00 | 0.00 | 69 | 1013.4 |
| 20260504032202 | 45 | 178 | 0.0 | 0.0 | 0.00 | 0.00 | 0.00 | 81 | 1013.2 |
| 20260504031702 | 45 | 178 | 0.0 | 0.0 | 0.00 | 0.00 | 0.00 | 81 | 1013.2 |
| 20260504030702 | 46 | 178 | 0.0 | 0.0 | 0.00 | 0.00 | 0.00 | 79 | 1013.2 |
| 20260504030202 | 46 | 178 | 0.0 | 0.0 | 0.00 | 0.00 | 0.00 | 77 | 1013.2 |
| 20260504025702 | 46 | 178 | 0.0 | 0.0 | 0.00 | 0.00 | 0.00 | 76 | 1013.0 |
| 20260504025202 | 47 | 178 | 0.0 | 0.0 | 0.00 | 0.00 | 0.00 | 76 | 1013.2 |
| 20260504024703 | 47 | 178 | 0.0 | 0.0 | 0.00 | 0.00 | 0.00 | 75 | 1013.3 |
| 20260504024202 | 48 | 178 | 0.0 | 0.0 | 0.00 | 0.00 | 0.00 | 75 | 1013.2 |
| 20260504023702 | 48 | 178 | 0.0 | 0.0 | 0.00 | 0.00 | 0.00 | 74 | 1013.2 |
| 20260504022702 | 49 | 178 | 0.0 | 0.0 | 0.00 | 0.00 | 0.00 | 72 | 1013.2 |
| 20260504022202 | 49 | 178 | 0.0 | 0.0 | 0.00 | 0.00 | 0.00 | 71 | 1013.2 |
| 20260504021703 | 49 | 178 | 0.0 | 0.0 | 0.00 | 0.00 | 0.00 | 67 | 1013.2 |
| 20260504021202 | 50 | 178 | 0.0 | 0.0 | 0.00 | 0.00 | 0.00 | 65 | 1013.2 |
| 20260504020702 | 50 | 179 | 0.0 | 0.0 | 0.00 | 0.00 | 0.00 | 64 | 1013.2 |
| 20260504015202 | 50 | 181 | 0.0 | 0.0 | 0.00 | 0.00 | 0.00 | 55 | 1013.2 |
| 20260504014703 | 50 | 186 | 0.0 | 0.0 | 0.00 | 0.00 | 0.00 | 56 | 1013.2 |
| 20260504014203 | 51 | 181 | 0.0 | 1.7 | 0.00 | 0.00 | 0.00 | 62 | 1013.2 |
| 20260504013203 | 51 | 182 | 0.0 | 0.0 | 0.00 | 0.00 | 0.00 | 62 | 1012.9 |
| 20260504012702 | 52 | 182 | 0.0 | 0.0 | 0.00 | 0.00 | 0.00 | 58 | 1012.9 |
| 20260504011702 | 53 | 184 | 0.0 | 0.0 | 0.00 | 0.00 | 0.00 | 57 | 1012.9 |
| 20260504011202 | 53 | 183 | 0.0 | 0.0 | 0.00 | 0.00 | 0.00 | 55 | 1012.9 |
| 20260504010703 | 54 | 183 | 0.0 | 0.0 | 0.00 | 0.00 | 0.00 | 51 | 1012.5 |
| 20260504010202 | 54 | 183 | 0.0 | 0.0 | 0.00 | 0.00 | 0.00 | 51 | 1012.8 |
| 20260504005202 | 55 | 183 | 0.0 | 0.0 | 0.00 | 0.00 | 0.00 | 49 | 1012.7 |
| 20260504004702 | 55 | 183 | 0.0 | 0.0 | 0.00 | 0.00 | 0.00 | 46 | 1012.5 |
| 20260504004203 | 55 | 184 | 0.0 | 0.0 | 0.00 | 0.00 | 0.00 | 45 | 1012.5 |
| 20260504003702 | 56 | 184 | 0.0 | 0.0 | 0.00 | 0.00 | 0.00 | 46 | 1012.5 |
| 20260504002702 | 56 | 167 | 0.0 | 1.7 | 0.00 | 0.00 | 0.00 | 42 | 1012.2 |
| 20260504002203 | 56 | 184 | 0.0 | 4.3 | 0.00 | 0.00 | 0.00 | 42 | 1012.2 |
| 20260504001703 | 57 | 199 | 1.7 | 4.3 | 0.00 | 0.00 | 0.00 | 41 | 1012.2 |
| 20260504001203 | 57 | 186 | 0.0 | 4.3 | 0.00 | 0.00 | 0.00 | 42 | 1012.2 |
| 20260504000702 | 57 | 188 | 0.9 | 1.7 | 0.00 | 0.00 | 0.00 | 41 | 1011.9 |
| 20260503235702 | 58 | 193 | 0.0 | 1.7 | 0.00 | 0.00 | 0.00 | 40 | 1011.9 |
| 20260503234202 | 59 | 207 | 1.7 | 6.1 | 0.00 | 0.00 | 0.00 | 37 | 1011.9 |
| 20260503233702 | 59 | 202 | 1.7 | 6.1 | 0.00 | 0.00 | 0.00 | 37 | 1011.9 |
| 20260503233202 | 59 | 316 | 0.9 | 6.1 | 0.00 | 0.00 | 0.00 | 37 | 1011.9 |
| 20260503232703 | 60 | 209 | 0.9 | 8.7 | 0.00 | 0.00 | 0.00 | 37 | 1011.9 |
| 20260503232203 | 60 | 205 | 0.9 | 4.3 | 0.00 | 0.00 | 0.00 | 36 | 1011.5 |
| 20260503231702 | 61 | 227 | 2.6 | 8.7 | 0.00 | 0.00 | 0.00 | 35 | 1011.6 |
| 20260503231202 | 62 | 206 | 0.9 | 1.7 | 0.00 | 0.00 | 0.00 | 35 | 1011.5 |
| 20260503230703 | 62 | 195 | 1.7 | 4.3 | 0.00 | 0.00 | 0.00 | 36 | 1011.5 |
| 20260503230203 | 62 | 197 | 0.0 | 6.1 | 0.00 | 0.00 | 0.00 | 35 | 1011.5 |
| 20260503225202 | 62 | 174 | 2.6 | 8.7 | 0.00 | 0.00 | 0.00 | 33 | 1011.5 |
| 20260503224702 | 62 | 152 | 0.9 | 6.1 | 0.00 | 0.00 | 0.00 | 34 | 1011.5 |
| 20260503224202 | 62 | 207 | 1.7 | 8.7 | 0.00 | 0.00 | 0.00 | 33 | 1011.5 |
| 20260503223702 | 62 | 176 | 0.9 | 8.7 | 0.00 | 0.00 | 0.00 | 33 | 1011.5 |
| 20260503223203 | 62 | 211 | 0.9 | 4.3 | 0.00 | 0.00 | 0.00 | 33 | 1011.5 |
| 20260503222702 | 62 | 180 | 0.9 | 4.3 | 0.00 | 0.00 | 0.00 | 32 | 1011.2 |
| 20260503222202 | 62 | 264 | 0.9 | 8.7 | 0.00 | 0.00 | 0.00 | 33 | 1011.5 |
| 20260503221702 | 62 | 18 | 1.7 | 8.7 | 0.00 | 0.00 | 0.00 | 33 | 1011.5 |
| 20260503220703 | 62 | 196 | 2.6 | 8.7 | 0.00 | 0.00 | 0.00 | 34 | 1011.3 |
| 20260503220202 | 62 | 197 | 5.2 | 13.0 | 0.00 | 0.00 | 0.00 | 34 | 1011.5 |
| 20260503215702 | 62 | 22 | 1.7 | 6.1 | 0.00 | 0.00 | 0.00 | 33 | 1011.3 |
| 20260503215202 | 62 | 92 | 2.6 | 8.7 | 0.00 | 0.00 | 0.00 | 33 | 1011.9 |
| 20260503214702 | 62 | 263 | 2.6 | 11.3 | 0.00 | 0.00 | 0.00 | 32 | 1011.9 |
| 20260503213704 | 62 | 210 | 4.3 | 11.3 | 0.00 | 0.00 | 0.00 | 34 | 1011.5 |
| 20260503213202 | 62 | 254 | 7.0 | 13.0 | 0.00 | 0.00 | 0.00 | 32 | 1011.5 |
| 20260503212202 | 62 | 196 | 1.7 | 11.3 | 0.00 | 0.00 | 0.00 | 33 | 1011.5 |
| 20260503211203 | 62 | 273 | 2.6 | 13.0 | 0.00 | 0.00 | 0.00 | 33 | 1011.5 |
| 20260503210702 | 62 | 224 | 5.2 | 13.0 | 0.00 | 0.00 | 0.00 | 34 | 1011.5 |
| 20260503210203 | 62 | 147 | 2.6 | 11.3 | 0.00 | 0.00 | 0.00 | 34 | 1011.5 |
| 20260503205703 | 62 | 225 | 1.7 | 8.7 | 0.00 | 0.00 | 0.00 | 35 | 1011.5 |
| 20260503205202 | 62 | 123 | 2.6 | 13.0 | 0.00 | 0.00 | 0.00 | 34 | 1011.5 |
| 20260503204702 | 62 | 197 | 4.3 | 13.0 | 0.00 | 0.00 | 0.00 | 34 | 1011.6 |
| 20260503204204 | 62 | 187 | 5.2 | 19.1 | 0.00 | 0.00 | 0.00 | 33 | 1011.5 |
| 20260503203703 | 62 | 24 | 2.6 | 8.7 | 0.00 | 0.00 | 0.00 | 34 | 1011.9 |
| 20260503203203 | 62 | 227 | 4.3 | 14.8 | 0.00 | 0.00 | 0.00 | 34 | 1011.5 |
| 20260503201704 | 62 | 338 | 2.6 | 11.3 | 0.00 | 0.00 | 0.00 | 35 | 1011.3 |
| 20260503200703 | 61 | 219 | 1.7 | 8.7 | 0.00 | 0.00 | 0.00 | 34 | 1011.7 |
| 20260503200202 | 61 | 220 | 3.5 | 11.3 | 0.00 | 0.00 | 0.00 | 34 | 1011.5 |
| 20260503195703 | 61 | 194 | 4.3 | 11.3 | 0.00 | 0.00 | 0.00 | 34 | 1011.8 |